TimeMDT,TemperatureF,Dew PointF,Humidity,Sea Level PressureIn,VisibilityMPH,Wind Direction,Wind SpeedMPH,Gust SpeedMPH,PrecipitationIn,Events,Conditions,WindDirDegrees,DateUTC
5:00 AM,17.6,8.6,68,29.75,15.0,ESE,2.3,-,N/A,,Partly Cloudy,110,2012-03-14 11:00:00
6:00 AM,15,7,58,29.78,15,East,2.3,,,,,100,2012-03-14 12:00:00
6:00 AM,15.8,6.8,68,29.78,15.0,East,2.3,-,N/A,,Clear,90,2012-03-14 12:00:00
7:00 AM,14.0,6.8,73,29.79,15.0,Calm,Calm,-,N/A,,Partly Cloudy,0,2012-03-14 13:00:00
8:00 AM,12.2,5.0,73,29.80,25.0,NW,3.5,-,N/A,,Mostly Cloudy,320,2012-03-14 14:00:00
9:00 AM,15.8,8.6,73,29.83,30.0,NW,3.5,-,N/A,,Mostly Cloudy,320,2012-03-14 15:00:00
10:00 AM,19.4,14.0,80,29.85,30.0,SW,2.3,-,N/A,,Mostly Cloudy,230,2012-03-14 16:00:00
11:00 AM,26.6,15.8,64,29.86,30.0,ENE,3.5,-,N/A,,Mostly Cloudy,70,2012-03-14 17:00:00
12:00 PM,32,14,34,29.82,28,SSE,5.8,,,,Scattered Clouds,160,2012-03-14 18:00:00
12:00 PM,32.0,14.0,48,29.82,30.0,SSE,5.8,-,N/A,,Mostly Cloudy,160,2012-03-14 18:00:00
1:00 PM,35.6,8.6,33,29.80,30.0,South,6.9,19.6,N/A,,Mostly Cloudy,180,2012-03-14 19:00:00
2:00 PM,37.4,8.6,30,29.80,30.0,WNW,13.8,24.2,N/A,,Mostly Cloudy,290,2012-03-14 20:00:00
3:00 PM,37.4,8.6,30,29.80,30.0,SW,8.1,-,N/A,,Mostly Cloudy,220,2012-03-14 21:00:00
4:00 PM,37.4,8.6,30,29.79,30.0,West,5.8,-,N/A,,Scattered Clouds,270,2012-03-14 22:00:00
5:00 PM,39.2,8.6,28,29.79,30.0,WSW,4.6,-,N/A,,Mostly Cloudy,250,2012-03-14 23:00:00
6:00 PM,39,7,14,29.77,28,WSW,8.1,,,,Scattered Clouds,250,2012-03-15 00:00:00
6:00 PM,39.2,6.8,26,29.77,30.0,WSW,8.1,-,N/A,,Mostly Cloudy,250,2012-03-15 00:00:00
7:00 PM,37.4,10.4,33,29.76,30.0,South,8.1,-,N/A,,Mostly Cloudy,180,2012-03-15 01:00:00
8:00 PM,33.8,12.2,41,29.75,30.0,SSE,4.6,-,N/A,,Scattered Clouds,150,2012-03-15 02:00:00
9:00 PM,30.2,12.2,47,29.75,15.0,SE,2.3,-,N/A,,Partly Cloudy,140,2012-03-15 03:00:00
10:00 PM,28.4,12.2,51,29.58,15.0,South,10.4,-,N/A,,Partly Cloudy,190,2012-03-15 04:00:00